Change the Weather History Date:

Sunday, October 7, 2012

  Actual Average Record
Temperature  
Mean Temperature 44 °F -  
Max Temperature 50 °F 80 °F 95 °F (2014)
Min Temperature 39 °F 56 °F 39 °F (2012)
Degree Days  
Heating Degree Days 22    
Moisture  
Dew Point 39 °F    
Average Humidity 84    
Maximum Humidity 93    
Minimum Humidity 71    
Precipitation  
Precipitation 0.00 in - - ()
Sea Level Pressure  
Sea Level Pressure 30.21 in    
Wind  
Wind Speed 9 mph (ENE)    
Max Wind Speed 16 mph    
Max Gust Speed -    
Visibility 7 miles    
Events Rain    
Averages and records for this station are not official NWS values.
T = Trace of Precipitation, MM = Missing Value Source: NWS Daily Summary

Daily Weather History Graph

Daily Weather History Graph

Search for Another Location

Airport or City:

Trip Planner

Search our weather history database for the weather conditions in past years. The results will help you decide how hot, cold, wet, or windy it might be!

Date:

Astronomy

Oct. 07, 2012 Rise Set
Actual Time 7:49 AM CDT 7:28 PM CDT
Civil Twilight 7:25 AM CDT 7:52 PM CDT
Nautical Twilight 6:57 AM CDT 8:20 PM CDT
Astronomical Twilight 6:29 AM CDT 8:48 PM CDT
Moon 12:04 AM CDT (10/7) 2:12 PM CDT (10/7)
Length of Visible Light 12h 27m
Length of Day
11h 39m
Waning Gibbous, 56% of the Moon is Illuminated
Oct 7
Waning Gibbous
Oct 8
Last Quarter
Oct 15
New
Oct 21
First Quarter
Oct 29
Full

Hourly Weather History & Observations

Time (CDT) Temp. Windchill Dew Point Humidity Pressure Visibility Wind Dir Wind Speed Gust Speed Precip Events Conditions
12:53 AM 46.9 °F - 39.0 °F 74% 30.17 in 10.0 mi NE 16.1 mph - N/A   Overcast
1:53 AM 46.0 °F 39.9 °F 37.9 °F 73% 30.18 in 10.0 mi NE 13.8 mph - N/A   Overcast
2:53 AM 45.0 °F 39.7 °F 37.0 °F 74% 30.19 in 10.0 mi NE 10.4 mph - N/A   Overcast
3:35 AM 42.8 °F 36.6 °F 39.2 °F 87% 30.26 in 8.0 mi ENE 11.5 mph - N/A   Overcast
3:50 AM 42.8 °F 36.2 °F 39.2 °F 87% 30.26 in 6.0 mi NE 12.7 mph - N/A   Overcast
3:53 AM 42.1 °F 35.2 °F 37.9 °F 85% 30.20 in 6.0 mi NE 12.7 mph - N/A   Overcast
4:39 AM 39.2 °F 32.0 °F 37.4 °F 93% 30.25 in 4.0 mi NE 11.5 mph - 0.00 in Rain Light Rain
4:53 AM 39.9 °F 32.9 °F 37.9 °F 93% 30.19 in 4.0 mi NE 11.5 mph - 0.00 in   Overcast
5:53 AM 39.9 °F 34.5 °F 37.9 °F 93% 30.20 in 5.0 mi NE 8.1 mph - N/A   Overcast
6:03 AM 39.2 °F 33.6 °F 37.4 °F 93% 30.26 in 4.0 mi NE 8.1 mph - N/A   Overcast
6:10 AM 39.2 °F 34.2 °F 37.4 °F 93% 30.26 in 4.0 mi ENE 6.9 mph - N/A   Overcast
6:53 AM 39.9 °F 34.5 °F 37.0 °F 89% 30.21 in 6.0 mi NE 8.1 mph - N/A   Overcast
7:53 AM 39.9 °F 37.8 °F 37.9 °F 93% 30.22 in 4.0 mi NE 3.5 mph - N/A   Overcast
8:21 AM 39.2 °F 34.2 °F 37.4 °F 93% 30.27 in 3.0 mi NNE 6.9 mph - N/A   Overcast
8:53 AM 39.9 °F 35.1 °F 37.9 °F 93% 30.23 in 3.0 mi NNE 6.9 mph - N/A   Overcast
9:00 AM 39.2 °F 34.2 °F 37.4 °F 93% 30.29 in 4.0 mi NE 6.9 mph - N/A   Overcast
9:09 AM 39.2 °F 35.0 °F 37.4 °F 93% 30.29 in 3.0 mi NE 5.8 mph - N/A   Overcast
9:35 AM 39.2 °F 35.0 °F 37.4 °F 93% 30.29 in 2.5 mi NNE 5.8 mph - N/A   Overcast
9:43 AM 39.2 °F 35.0 °F 37.4 °F 93% 30.29 in 3.0 mi NNE 5.8 mph - N/A   Overcast
9:53 AM 39.9 °F 35.8 °F 37.9 °F 93% 30.25 in 4.0 mi ENE 5.8 mph - N/A   Overcast
10:11 AM 41.0 °F 37.1 °F 37.4 °F 87% 30.29 in 7.0 mi NE 5.8 mph - N/A   Overcast
10:53 AM 41.0 °F 36.4 °F 37.9 °F 89% 30.25 in 10.0 mi NE 6.9 mph - N/A   Overcast
11:15 AM 42.8 °F 39.3 °F 37.4 °F 81% 30.29 in 10.0 mi NE 5.8 mph - N/A   Overcast
11:53 AM 42.1 °F 38.4 °F 37.9 °F 85% 30.24 in 10.0 mi East 5.8 mph - N/A   Overcast
12:53 PM 44.1 °F 41.5 °F 39.0 °F 82% 30.21 in 10.0 mi East 4.6 mph - N/A   Overcast
1:53 PM 45.0 °F 43.5 °F 39.0 °F 80% 30.17 in 10.0 mi Variable 3.5 mph - N/A   Overcast
2:48 PM 46.4 °F - 39.2 °F 76% 30.18 in 10.0 mi Calm Calm - N/A   Overcast
2:53 PM 48.0 °F - 39.0 °F 71% 30.13 in 10.0 mi Variable 3.5 mph - N/A   Overcast
3:53 PM 48.0 °F - 39.9 °F 74% 30.12 in 10.0 mi ENE 4.6 mph - N/A   Overcast
4:53 PM 48.9 °F - 39.9 °F 71% 30.10 in 10.0 mi Variable 4.6 mph - N/A   Overcast
5:53 PM 48.9 °F - 39.9 °F 71% 30.11 in 10.0 mi ENE 6.9 mph - N/A   Overcast
6:53 PM 48.0 °F - 39.9 °F 74% 30.12 in 10.0 mi East 9.2 mph - N/A   Overcast
7:53 PM 48.0 °F - 39.9 °F 74% 30.13 in 10.0 mi ESE 8.1 mph - N/A   Overcast
8:53 PM 48.0 °F - 39.9 °F 74% 30.15 in 10.0 mi East 6.9 mph - N/A   Overcast
9:53 PM 48.0 °F - 39.9 °F 74% 30.17 in 10.0 mi ESE 6.9 mph - N/A   Overcast
10:53 PM 48.0 °F - 41.0 °F 77% 30.17 in 10.0 mi SE 4.6 mph - N/A   Overcast
11:53 PM 48.0 °F - 42.1 °F 80% 30.17 in 10.0 mi ESE 6.9 mph - N/A   Overcast